{"data":{"norad_id":40961,"intl_designator":"2015-057D","name":"JILIN-1","alt_names":[],"object_type":"PAYLOAD","status":"ACTIVE","operator":null,"country":"PRC","launch_date":"2015-10-07","launch_site_code":"JSC","launch_vehicle":null,"mission":null,"orbit_class":"UNKNOWN","rcs_meters":2.2889,"size_class":null,"mass_kg":null,"dimensions":null,"purposes":[],"wikipedia_slug":null,"has_3d_model":false,"image_url":null,"decayed_at":null,"tle_current":{"epoch":"2026-09-20T04:27:12.261312Z","epoch_age_seconds":68574,"freshness":"FRESH","line1":"1 40961U 15057D   26263.18555858  .00000419  00000+0  64312-4 0  9995","line2":"2 40961  97.6585 257.8760 0015883 318.4295  41.5708 14.78280777589642","mean_motion":14.78280777,"eccentricity":0.0015883,"inclination_deg":97.6585,"raan_deg":257.876,"arg_perigee_deg":318.4295,"mean_anomaly_deg":41.5708,"bstar":6.4312e-5,"rev_number":58964,"period_min":97.410452899368,"perigee_km":623.61756677918,"apogee_km":645.89472314346,"semimajor_km":7012.8931449613,"source":"CELESTRAK","updated_at":"2026-09-20T09:00:14.108603Z"}}}